Regional Weather Roundup
Issued by NWS

Home | Current Version | Previous Version | Text Only | Print | Product List | Glossary Off
Versions: 1 2 3 4 5 6 7 8 9 10 11 12 13 14 15 16 17 18 19 20 21 22 23 24 25 26 27 28 29 30 31 32 33 34 35 36 37 38 39 40 41 42 43 44 45 46 47 48 49 50

000
ASUS43 KMPX 240310
RWRMN
WEATHER ROUNDUP FOR MINNESOTA
NATIONAL WEATHER SERVICE TWIN CITIES/CHANHASSEN MN
900 PM CST THU FEB 23 2017


NOTE: "FAIR" INDICATES FEW OR NO CLOUDS BELOW 12,000 FEET WITH NO
SIGNIFICANT WEATHER AND/OR OBSTRUCTIONS TO VISIBILITY. N/A MEANS
CURRENT SKY AND/OR WEATHER CONDITIONS ARE NOT AVAILABLE.

MNZ060>063-068>070-240400-
   Twin Cities Metro

CITY           SKY/WX    TMP DP  RH WIND       PRES   REMARKS
TWIN CITIES    CLOUDY    30  22  72 NE14      29.89S WCI  19
ST PAUL        PTCLDY    30  23  75 N14       29.91S WCI  19
CRYSTAL        MOCLDY    30  21  69 N14       29.89F WCI  19
BLAINE         PTCLDY    30  25  80 N17       29.91F WCI  18
LAKEVILLE      CLOUDY    28  25  86 NE13G20   29.88R WCI  18
EDEN PRAIRIE   CLOUDY    30  22  72 NE13G25   29.87R WCI  20
SOUTH ST PAUL  CLOUDY    31  23  72 N12G20    29.89S WCI  22
LAKE ELMO      FAIR      30  25  80 N13       29.90S WCI  20
$$
MNZ001>005-007-008-013>017-022>024-027-028-240400-
   Northwest Minnesota

CITY           SKY/WX    TMP DP  RH WIND       PRES   REMARKS
BEMIDJI        CLOUDY    19  11  71 N9        30.03S WCI   8
HALLOCK        CLEAR     18  12  79 N7        30.14S WCI   8
ROSEAU         CLEAR     16   9  73 NW9       30.10F WCI   4
WARROAD        CLEAR     14   7  73 NW7       30.10S WCI   4
THIEF RVR FALL CLEAR     17  11  77 N9        30.10F WCI   6
CROOKSTON      CLEAR     21  14  73 NE12G17   30.12S WCI   9
FOSSTON        CLEAR     18  12  79 N18       30.06F WCI   2
DETROIT LAKES  CLOUDY    23  18  80 N10G18    30.00F WCI  12
MOORHEAD       CLOUDY    23  16  74 N22G28    30.06S WCI   8
PARK RAPIDS    CLOUDY    22  12  65 N14       29.97F WCI   9
MAHNOMEN       FAIR      20  13  74 N18       30.03F WCI   4
$$
MNZ006-009>011-018-025>026-240400-
   North Central Minnesota

CITY           SKY/WX    TMP DP  RH WIND       PRES   REMARKS
BAUDETTE       CLEAR     15   5  64 NW13      30.07R WCI   1
FLAG ISLAND    CLEAR     14   7  73 NW15      30.09S WCI  -1
INTL FALLS     CLEAR     17   7  64 NW8       30.04S WCI   7
WASKISH        CLEAR     18  10  73 N8        30.06F WCI   7
BIG FORK       CLOUDY    19   9  63 N7        30.02F WCI  10
LONGVILLE      CLOUDY    21  16  79 N5        29.99F WCI  15
GRAND RAPIDS   CLOUDY    20  13  74 N9        30.01F WCI   9
CRANE LAKE     CLOUDY    19   9  63 N3        30.04S
ORR            CLOUDY    19   9  63 CALM      29.99S
COOK           CLOUDY    19  10  68 CALM      30.01S
WALKER         FAIR      20  13  73 N14       30.00F WCI   7
$$
MNZ012-019>021-037-240400-
   Northeast Minnesota

CITY           SKY/WX    TMP DP  RH WIND       PRES   REMARKS
DULUTH         CLOUDY    23  17  78 N8        29.94F WCI  14
ELY            CLOUDY    19  10  68 NW6       29.98S WCI  11
HIBBING        CLOUDY    20  13  74 N9        29.98F WCI   9
EVELETH        CLOUDY    22   9  55 N7        29.99F WCI  14
DULUTH HARBOR  PTCLDY    30  21  69 N14       30.01F WCI  20
TWO HARBORS    PTCLDY    27  18  69 NE6       29.96F WCI  20
SILVER BAY     PTCLDY    25  16  68 CALM      29.98R
GRAND MARAIS     N/A     29  13  51 VRB3      30.00R
G MARAIS ARPRT CLOUDY    19   7  58 NW8       29.94R WCI   9
$$
MNZ029>031-032-039>041-046>048-054>057-064-240400-
   West Central Minnesota

CITY           SKY/WX    TMP DP  RH WIND       PRES   REMARKS
FERGUS FALLS   PTCLDY    25  18  74 N15       30.04R WCI  12
WHEATON        CLOUDY    27  19  74 N15       30.03R WCI  15
MORRIS         CLOUDY    28  23  80 N20       29.95R WCI  15
ALEXANDRIA     CLOUDY    26  21  81 N15       29.95R WCI  14
ELBOW LAKE     FAIR      24  20  82 N15G22    29.98S WCI  12
WADENA         PTCLDY    21  18  86 N12G20    29.97S WCI   9
GLENWOOD       CLOUDY    27  21  80 N17G24    29.92F WCI  14
APPLETON       CLOUDY    30  25  80 N18       29.94S WCI  18
BENSON         CLOUDY    30  19  64 NE13      29.95R WCI  20
ORTONVILLE       N/A     27  21  80 N23       29.96S WCI  12
MADISON        CLOUDY    32  27  80 N14       29.95R WCI  22
WILLMAR        CLOUDY    30  23  74 NE23G29   29.91S WCI  17
$$
MNZ033>034-036-042>043-049>051-058-059-240400-
   Central Minnesota

CITY           SKY/WX    TMP DP  RH WIND       PRES   REMARKS
ST CLOUD       CLOUDY    27  21  78 N15G24    29.93F WCI  15
SAUK CENTRE    FAIR      27  20  75 N15       29.93F WCI  15
PAYNESVILLE    CLOUDY    28  22  79 N20G25    29.93R WCI  14
AITKIN         PTCLDY    25  18  74 N8        29.95F WCI  16
PINE RIVER     CLOUDY    23  18  80 N10       30.00F WCI  12
BRAINERD       PTCLDY    24  17  74 N13       29.96F WCI  12
STAPLES        CLOUDY    23  18  80 N12       29.96F WCI  12
LONG PRAIRIE   FAIR      27  21  80 N12       29.95R WCI  16
LITTLE FALLS   PTCLDY    27  19  74 N7        29.96S WCI  19
LITCHFIELD     CLOUDY    30  25  80 NE15G21   29.92R WCI  19
BUFFALO        CLOUDY    28  23  80 N15       29.93R WCI  17
MAPLE LAKE     MOCLDY    29  25  84 NE15G21   29.93R WCI  18
HUTCHINSON     CLOUDY    30  24  78 N15G25    29.91R WCI  19
$$
MNZ037-044-045-052-053-240400-
   East Central Minnesota

CITY           SKY/WX    TMP DP  RH WIND       PRES   REMARKS
PRINCETON      CLOUDY    28  21  74 N13       29.93F WCI  18
MORA           CLEAR     27  21  80 N6        29.96F WCI  20
CAMBRIDGE      CLOUDY    28  19  69 N10G18    29.91F WCI  19
RUSH CITY      PTCLDY    27  21  80 N14G20    29.93F WCI  15
MOOSE LAKE     PTCLDY    25  21  86 N7        29.94F WCI  17
HINCKLEY       FAIR      28  23  80 N9G18     29.93F WCI  20
CLOQUET        PTCLDY    25  18  74 N7        29.96F WCI  17
MCGREGOR       PTCLDY    25  19  80 N10       29.96F WCI  15
$$
MNZ071>073-080-081-089-090-097-098-240400-
   Southwest Minnesota

CITY           SKY/WX    TMP DP  RH WIND       PRES   REMARKS
MONTEVIDEO     CLOUDY    28  25  86 NE16G22   29.94R WCI  17
GRANITE FALLS  CLOUDY    32  26  78 N14       29.94R WCI  22
CANBY          CLOUDY    31  25  80 N16G22    29.95R WCI  19
MARSHALL       CLOUDY    30  25  81 NE18      29.91R WCI  18
REDWOOD FALLS  CLOUDY    31  23  72 VRB5G18   29.91R WCI  26
OLIVIA         CLOUDY    30  27  86 NE17      29.90R WCI  18
PIPESTONE      LGT SNOW  28  23  80 NE15G23   29.84R WCI  17
WINDOM         HVY SNOW  28  27  93 N18       29.83F VSB 1/4 WCI  16
WORTHINGTON    HVY SNOW  27  26  96 N26       29.81F VSB 1/4 WCI  12
JACKSON        SNOW      28  28 100 NE23      29.81F VSB 1/2 WCI  14
TRACY          CLOUDY    31  27  84 NE17      29.89R WCI  19
SLAYTON        SNOW      27  26  95 N17G23    29.87S VSB 1/2 WCI  14
$$
MNZ065>067-074>077-082>085-091>093-240400-
   South Central Minnesota

CITY           SKY/WX    TMP DP  RH WIND       PRES   REMARKS
MANKATO          N/A     31  25  78 NE12      29.88R WCI  22
NEW ULM        CLOUDY    30  23  74 NE10G16   29.90R WCI  21
ST JAMES       LGT SNOW  28  27  93 N14       29.88S VSB 1   WCI  17
FAIRMONT       LGT SNOW  29  28  96 N15G23    29.83S VSB 3/4 WCI  18
GLENCOE        CLOUDY    31  27  86 N9G22     29.89R WCI  23
FARIBAULT      CLOUDY    30  27  86 N9G20     29.87R WCI  22
OWATONNA       LGT SNOW  32  28  86 NE17G28   29.85R WCI  21
WASECA         LGT SNOW  32  30  93 NE12G22   29.86R VSB 1   WCI  23
ALBERT LEA     HVY SNOW  34  32  93 NE18G26   29.78R VSB 1/4 WCI  23
$$
MNZ078>079-086>088-094>096-240400-
   Southeast Minnesota

CITY           SKY/WX    TMP DP  RH WIND       PRES   REMARKS
ROCHESTER      LGT SNOW  33  29  85 NE20G25   29.80R FOG     WCI  21
RED WING       CLOUDY    36  27  69 E6        29.86S
STANTON        CLOUDY    33  27  79 NE10      29.86R WCI  25
DODGE CENTER   LGT SNOW  32  30  93 NE15      29.79F WCI  22
WINONA         CLOUDY    37  28  70 NE7       29.83F
AUSTIN         SNOW      34  30  86 NE14G20   29.77F VSB 1/2 WCI  24
PRESTON        FLURRIES  34  28  79 NE14G23   29.79S WCI  25
$$
ABBREVIATIONS USED IN REMARKS
   TC - TEMPERATURES IN CELSIUS
  WCI - WIND CHILL INDEX
   HX - HEAT INDEX
  VSB - VISIBILITY
$$




USA.gov is the U.S. government's official web portal to all federal, state and local government web resources and services.